Weather History for KTPA - May, 2013

Change the Weather History Date:

Sunday, May 19, 2013

  Actual Average Record
Temperature  
Mean Temperature 81 °F 79 °F  
Max Temperature 89 °F 88 °F 94 °F (1938)
Min Temperature 72 °F 71 °F 56 °F (1979)
Degree Days  
Heating Degree Days 0 0  
Month to date heating degree days 0 0  
Since 1 July heating degree days 400 538  
Cooling Degree Days 16 14  
Month to date cooling degree days 203 234  
Year to date cooling degree days 781 694  
Growing Degree Days 30 (Base 50)    
Moisture  
Dew Point 67 °F    
Average Humidity 70    
Maximum Humidity 93    
Minimum Humidity 46    
Precipitation  
Precipitation 0.00 in 0.08 in 1.14 in (1959)
Month to date precipitation 1.01 1.04  
Year to date precipitation 8.28 11.14  
Sea Level Pressure  
Sea Level Pressure 30.06 in    
Wind  
Wind Speed 5 mph (WNW)    
Max Wind Speed 14 mph    
Max Gust Speed 20 mph    
Visibility 10 miles    
Events      
T = Trace of Precipitation, MM = Missing Value Source: NWS Daily Summary

Daily Weather History Graph

Daily Weather History Graph

Search for Another Location

Airport or City:

Trip Planner

Search our weather history database for the weather conditions in past years. The results will help you decide how hot, cold, wet, or windy it might be!

Date:

Astronomy

May. 19, 2013 Rise Set
Actual Time 6:38 AM EDT 8:15 PM EDT
Civil Twilight 6:12 AM EDT 8:41 PM EDT
Nautical Twilight 5:41 AM EDT 9:11 PM EDT
Astronomical Twilight 5:09 AM EDT 9:44 PM EDT
Moon 2:46 PM EDT (5/19) 2:30 AM EDT (5/19)
Length of Visible Light 14h 28m
Length of Day
13h 36m
Waxing Gibbous, 65% of the Moon is Illuminated
May 19
Waxing Gibbous
May 25
Full
May 31
Last Quarter
Jun 8
New
Jun 16
First Quarter

Hourly Weather History & Observations

Time (EDT) Temp. Heat Index Dew Point Humidity Pressure Visibility Wind Dir Wind Speed Gust Speed Precip Events Conditions
12:53 AM 75.9 °F - 70.0 °F 82% 30.08 in 10.0 mi North 4.6 mph - N/A   Mostly Cloudy
1:53 AM 73.9 °F - 69.1 °F 85% 30.06 in 10.0 mi Calm Calm - N/A   Scattered Clouds
2:53 AM 73.0 °F - 69.1 °F 87% 30.05 in 10.0 mi Calm Calm - N/A   Clear
3:53 AM 73.0 °F - 69.1 °F 87% 30.04 in 10.0 mi Calm Calm - N/A   Clear
4:53 AM 72.0 °F - 69.1 °F 91% 30.03 in 9.0 mi Calm Calm - N/A   Scattered Clouds
5:53 AM 73.0 °F - 69.1 °F 87% 30.05 in 10.0 mi Calm Calm - N/A   Scattered Clouds
6:53 AM 73.9 °F - 70.0 °F 87% 30.06 in 9.0 mi Calm Calm - N/A   Scattered Clouds
7:53 AM 77.0 °F - 71.6 °F 83% 30.08 in 9.0 mi Calm Calm - N/A   Scattered Clouds
8:53 AM 78.1 °F - 71.1 °F 79% 30.10 in 10.0 mi Calm Calm - N/A   Scattered Clouds
9:53 AM 79.0 °F - 71.1 °F 77% 30.11 in 10.0 mi SSW 3.5 mph - N/A   Scattered Clouds
10:53 AM 82.0 °F 84.9 °F 68.0 °F 62% 30.11 in 10.0 mi SSW 4.6 mph - N/A   Scattered Clouds
11:53 AM 84.0 °F 86.5 °F 66.9 °F 56% 30.10 in 10.0 mi Variable 6.9 mph - N/A   Mostly Cloudy
12:53 PM 86.0 °F 87.6 °F 64.9 °F 49% 30.08 in 10.0 mi West 5.8 mph - N/A   Mostly Cloudy
1:53 PM 86.0 °F 89.4 °F 68.0 °F 55% 30.06 in 10.0 mi SW 6.9 mph - N/A   Mostly Cloudy
2:53 PM 87.8 °F 90.4 °F 66.2 °F 49% 30.04 in 10.0 mi WSW 8.1 mph - N/A   Mostly Cloudy
3:53 PM 87.8 °F 89.4 °F 64.4 °F 46% 30.03 in 10.0 mi West 12.7 mph - N/A   Mostly Cloudy
4:53 PM 87.1 °F 88.3 °F 64.0 °F 46% 30.01 in 10.0 mi West 9.2 mph - N/A   Mostly Cloudy
5:53 PM 87.1 °F 88.3 °F 64.0 °F 46% 30.00 in 10.0 mi West 10.4 mph - N/A   Mostly Cloudy
6:53 PM 84.9 °F 85.9 °F 63.0 °F 48% 30.02 in 10.0 mi NNW 8.1 mph - N/A   Mostly Cloudy
7:53 PM 82.0 °F 83.1 °F 63.0 °F 52% 30.02 in 10.0 mi NNW 9.2 mph - N/A   Mostly Cloudy
8:53 PM 81.0 °F 82.5 °F 64.0 °F 56% 30.04 in 10.0 mi North 6.9 mph - N/A   Scattered Clouds
9:53 PM 79.0 °F - 64.9 °F 62% 30.07 in 10.0 mi NW 4.6 mph - N/A   Scattered Clouds
10:53 PM 79.0 °F - 66.0 °F 64% 30.09 in 10.0 mi North 6.9 mph - N/A   Mostly Cloudy
11:53 PM 78.8 °F - 64.4 °F 61% 30.09 in 10.0 mi NNE 8.1 mph - N/A   Mostly Cloudy